This is the latest recevied weather packets stored in our database for station/object WB0YAF-8. If no packets are shown the sender has not sent any weather packets the latest 10 day(s).
| Time | Temp. | Humidity | Pressure | Rain* | Wind** | Luminosity | Snow |
|---|---|---|---|---|---|---|---|
| 1778047974 | -0.56° C | 79% | 1015.8 hPa | 0 mm | - | - | - |
| 1778047675 | -0.56° C | 79% | 1015.8 hPa | 0 mm | - | - | - |
| 1778047375 | -0.56° C | 79% | 1015.8 hPa | 0 mm | - | - | - |
| 1778047075 | -0.56° C | 78% | 1014.8 hPa | 0 mm | - | - | - |
| 1778046775 | -0.56° C | 77% | 1014.8 hPa | 0 mm | - | - | - |
| 1778046475 | -0.56° C | 74% | 1014.8 hPa | 0 mm | - | - | - |
| 1778046175 | -0.56° C | 74% | 1015.8 hPa | 0 mm | - | - | - |
| 1778045876 | -0.56° C | 73% | 1015.8 hPa | 0 mm | - | - | - |
| 1778045576 | -0.56° C | 71% | 1015.8 hPa | 0 mm | - | - | - |
| 1778045275 | -0.56° C | 70% | 1015.8 hPa | 0 mm | - | - | - |
| 1778044974 | -0.56° C | 72% | 1015.8 hPa | 0 mm | - | - | - |
| 1778044674 | -0.56° C | 73% | 1015.8 hPa | 0 mm | - | - | - |
| 1778044375 | -0.56° C | 72% | 1015.8 hPa | 0 mm | - | - | - |
| 1778044076 | -0.56° C | 75% | 1015.8 hPa | 0 mm | - | - | - |
| 1778043776 | -0.56° C | 74% | 1015.8 hPa | 0 mm | - | - | - |
| 1778043475 | -0.56° C | 75% | 1014.9 hPa | 0 mm | - | - | - |
| 1778043174 | -0.56° C | 74% | 1014.8 hPa | 0 mm | - | - | - |
| 1778042874 | -0.56° C | 72% | 1014.8 hPa | 0 mm | - | - | - |
| 1778042574 | -0.56° C | 71% | 1014.8 hPa | 0 mm | - | - | - |
| 1778042276 | 0° C | 70% | 1014.8 hPa | 0 mm | - | - | - |
| 1778041976 | 0° C | 72% | 1014.8 hPa | 0 mm | - | - | - |
| 1778041676 | 0° C | 71% | 1014.8 hPa | 0 mm | - | - | - |
| 1778041374 | 0° C | 70% | 1014.8 hPa | 0 mm | - | - | - |
| 1778041074 | 0° C | 70% | 1014.8 hPa | 0 mm | - | - | - |
| 1778040774 | 0° C | 70% | 1015.6 hPa | 0 mm | - | - | - |
* Rain latest hour (hover to see other rain measurements)
** Current wind speed in m/s (hover to see current wind gust speed)